This is the latest recevied weather packets stored in our database for station/object VK5KX. If no packets are shown the sender has not sent any weather packets the latest 10 day(s).
| Time | Temp. | Humidity | Pressure | Rain* | Wind** | Luminosity | Snow |
|---|---|---|---|---|---|---|---|
| 1778067014 | 14.44° C | 79% | 1025.5 hPa | 0 mm | - | - | - |
| 1778066113 | 14.44° C | 81% | 1025.5 hPa | 0 mm | - | - | - |
| 1778065211 | 14.44° C | 81% | 1025.2 hPa | 0 mm | - | - | - |
| 1778064310 | 14.44° C | 81% | 1025.2 hPa | 0 mm | - | - | - |
| 1778063418 | 15° C | 81% | 1024.9 hPa | 0 mm | - | - | - |
| 1778062508 | 15° C | 82% | 1024.8 hPa | 0 mm | - | - | - |
| 1778061604 | 15° C | 84% | 1024.6 hPa | 0 mm | - | - | - |
| 1778060703 | 15° C | 84% | 1024.3 hPa | 0 mm | - | - | - |
| 1778059801 | 15.56° C | 84% | 1024.1 hPa | 0 mm | - | - | - |
| 1778058960 | 15.56° C | 84% | 1023.7 hPa | 0 mm | - | - | - |
| 1778058060 | 15.56° C | 84% | 1023.5 hPa | 0 mm | - | - | - |
| 1778057160 | 16.11° C | 84% | 1023.3 hPa | 0 mm | - | - | - |
| 1778057102 | 16.11° C | 84% | 1023.3 hPa | 0 mm | - | - | - |
| 1778056260 | 16.67° C | 82% | 1023.1 hPa | 0 mm | - | - | - |
| 1778055362 | 16.67° C | 76% | 1022.8 hPa | 0 mm | - | - | - |
| 1778054461 | 16.67° C | 73% | 1022.7 hPa | 0 mm | - | - | - |
| 1778053591 | 17.22° C | 72% | 1022.6 hPa | 0 mm | - | - | - |
| 1778052662 | 17.22° C | 70% | 1022.5 hPa | 0 mm | - | - | - |
| 1778051757 | 17.78° C | 71% | 1022.4 hPa | 0 mm | - | - | - |
| 1778050876 | 17.78° C | 71% | 1022.3 hPa | 0 mm | - | - | - |
| 1778049969 | 17.78° C | 71% | 1022.2 hPa | 0 mm | - | - | - |
| 1778049056 | 18.33° C | 71% | 1022.1 hPa | 0 mm | - | - | - |
| 1778048157 | 18.33° C | 72% | 1022.1 hPa | 0 mm | - | - | - |
| 1778047258 | 17.78° C | 76% | 1022 hPa | 0 mm | - | - | - |
| 1778046354 | 17.22° C | 80% | 1022 hPa | 0 mm | - | - | - |
* Rain latest hour (hover to see other rain measurements)
** Current wind speed in m/s (hover to see current wind gust speed)